GEFSNGP_con_prob3kmehi_336.txt.gz
EHI
0 0 0 0 0 0 0 0 0 1 3 5 9 12 14 16 18 22 26 31 41 53 61 63 65 62 57 53 52 52 51 46 39 35 34 33 33 34 30 25 21 17 14 14
0 0 0 0 0 0 0 0 0 1 5 7 9 12 15 17 19 23 25 28 38 51 58 62 63 62 59 56 54 54 53 48 42 37 35 33 32 32 30 25 21 17 14 13
0 0 0 0 0 0 0 0 0 2 6 8 10 12 16 20 23 24 24 27 35 45 54 59 60 60 61 59 57 57 55 51 45 41 37 34 30 30 28 24 21 18 15 14
0 0 0 0 1 1 1 0 1 3 6 8 10 13 19 24 26 27 26 29 34 40 47 53 55 56 59 60 60 58 56 52 48 43 40 35 31 29 26 22 19 17 16 15
0 0 0 1 2 4 2 2 3 4 6 9 9 12 20 27 29 29 30 32 35 35 39 48 52 53 55 57 57 56 53 49 46 42 39 35 31 27 24 21 18 17 16 15
0 0 0 1 3 4 4 4 6 7 7 9 11 16 25 29 30 30 30 32 34 33 36 46 52 51 51 52 53 51 46 42 40 39 36 33 30 27 24 20 18 17 16 15
0 0 0 0 2 5 8 9 10 11 13 15 19 26 32 34 33 32 31 33 35 34 37 45 49 49 47 49 49 46 41 37 35 34 32 30 30 28 24 21 19 17 15 14
0 0 1 2 3 6 12 15 15 16 19 24 30 35 37 38 37 35 34 35 35 35 37 41 44 43 42 43 43 41 39 36 33 29 27 26 27 26 24 21 18 16 14 13
1 2 4 5 5 8 11 14 15 17 23 29 32 35 37 38 38 36 35 35 35 34 35 37 38 37 36 37 38 37 36 35 32 29 26 25 25 24 22 19 16 13 12 12
4 6 7 7 7 8 9 10 12 16 23 28 30 31 34 35 35 33 32 33 33 32 33 34 34 32 30 32 34 33 31 32 31 30 28 26 24 22 20 17 14 12 12 13
9 10 9 8 8 8 9 11 13 17 21 25 26 27 29 30 30 29 28 28 28 28 29 32 32 28 25 26 29 29 28 28 29 29 27 25 22 17 14 12 11 10 11 11
13 12 10 10 9 8 8 10 13 16 18 20 21 21 22 24 24 24 24 23 22 22 23 26 29 26 24 23 24 25 25 25 26 27 25 22 19 13 9 7 5 5 6 7
13 11 10 11 11 8 7 9 12 15 17 18 18 15 15 17 18 21 21 20 18 18 19 21 24 25 23 22 21 21 22 23 23 23 22 19 16 13 9 5 3 1 1 2
12 11 11 13 12 10 10 11 14 16 16 15 13 12 11 12 15 17 18 17 16 16 17 19 21 22 21 21 21 19 19 20 21 20 18 16 14 13 11 7 4 2 0 0
10 10 11 13 13 13 14 14 14 14 13 10 8 9 9 10 12 15 15 14 14 15 16 17 17 17 18 20 21 19 17 18 18 18 18 16 13 12 10 8 6 2 0 0
9 9 10 12 14 14 14 12 10 8 7 6 6 8 8 9 11 13 13 13 13 14 14 14 13 12 14 18 19 17 15 14 14 15 16 13 11 10 9 7 5 2 0 0
9 8 9 10 11 12 11 9 6 4 4 4 6 7 7 8 10 10 10 10 11 12 12 11 10 9 11 14 15 14 12 10 10 11 11 9 7 8 9 7 4 1 1 0
8 7 7 7 8 9 10 9 6 4 3 3 4 5 6 7 8 8 7 8 8 9 9 9 7 6 7 10 11 11 9 9 9 9 8 6 4 5 7 6 2 2 2 2
5 5 5 4 6 9 10 9 7 4 3 3 3 4 5 6 6 6 6 6 6 6 7 6 5 4 5 6 7 8 8 7 7 7 6 4 2 2 3 2 1 1 3 3
4 4 4 4 7 10 10 8 7 5 4 3 3 4 5 6 6 6 5 5 5 5 5 4 3 3 3 3 4 5 6 6 5 5 6 4 1 0 0 0 0 0 1 2
3 3 4 6 9 12 10 7 7 6 6 4 4 5 6 6 6 5 4 4 4 4 4 3 3 2 2 2 3 5 6 5 4 4 6 5 2 1 1 0 0 0 1 2
5 6 8 9 11 11 8 6 6 7 7 6 5 6 6 6 5 4 4 4 4 3 3 2 1 1 2 2 3 4 4 4 3 4 6 5 4 3 1 0 0 0 1 2
8 10 11 11 9 8 7 6 6 7 8 7 6 6 6 5 4 3 3 3 2 2 2 1 0 0 1 2 2 2 3 3 3 4 4 4 4 3 1 0 0 0 1 1
12 12 11 9 6 5 5 5 6 7 8 7 6 6 5 4 3 3 3 3 1 0 0 0 0 0 0 1 1 1 1 2 2 2 2 2 2 2 1 0 0 1 1 0
11 10 8 5 4 4 4 5 6 7 6 5 5 5 4 3 3 3 3 2 1 0 0 0 0 0 0 0 0 0 0 1 1 1 0 0 1 2 2 1 1 1 1 1
9 8 5 4 3 3 3 3 4 5 4 3 3 3 3 3 3 3 3 2 1 0 0 0 0 0 0 0 0 0 0 0 0 0 0 1 2 3 2 2 2 1 1 0
9 6 4 3 4 3 2 2 3 3 2 1 1 2 3 3 3 3 2 1 0 0 0 0 0 0 0 0 0 0 0 0 0 0 0 1 2 3 3 3 2 1 0 0

GEFSNGP_con_prob3kmehi_342.txt.gz
EHI
0 0 0 0 0 0 0 0 0 0 1 3 4 8 12 16 19 21 21 21 24 25 26 28 32 33 33 34 34 35 36 34 29 27 26 23 19 16 13 11 9 5 4 6
0 0 0 0 0 0 0 0 0 1 2 4 5 8 12 16 21 23 24 24 25 25 26 28 30 30 30 32 33 35 37 33 28 26 25 22 19 16 13 10 7 4 3 4
0 0 0 0 0 0 1 2 2 3 4 5 7 8 10 15 20 24 25 25 25 25 26 27 27 26 27 30 32 34 34 30 26 24 22 20 17 14 12 8 4 3 3 3
0 0 0 0 0 0 1 2 3 6 7 8 8 8 9 12 18 22 22 22 22 21 23 25 25 24 25 29 32 32 30 26 23 21 18 16 14 12 10 6 3 1 2 2
0 0 0 0 0 0 1 2 4 8 10 10 10 10 9 10 15 20 19 18 18 17 19 22 23 24 26 30 32 31 27 23 21 20 17 15 13 11 9 7 4 2 1 1
0 0 0 0 0 0 0 1 4 8 10 10 9 9 7 9 14 18 19 18 17 17 18 22 25 27 29 31 31 29 25 22 20 19 17 15 13 11 11 11 9 5 2 1
0 0 0 0 0 0 0 1 3 6 8 8 7 6 7 9 13 17 19 19 19 19 19 22 27 29 29 30 29 27 24 21 20 18 16 14 12 11 11 12 12 9 5 3
0 0 0 1 0 0 1 2 3 4 5 7 7 8 9 11 14 17 18 18 18 18 18 22 26 28 27 25 25 24 22 20 18 17 14 13 12 11 11 12 12 10 7 6
1 1 1 1 0 1 2 4 6 6 7 8 9 9 9 10 12 14 16 16 16 16 17 20 23 24 22 19 18 18 17 15 14 14 13 13 13 12 12 12 11 11 10 9
2 3 3 2 1 2 3 6 9 9 10 9 9 8 8 8 8 10 12 14 14 14 16 18 19 18 16 14 13 14 12 11 11 11 11 12 12 12 12 12 12 12 12 12
3 3 4 4 3 3 6 9 11 11 10 9 7 6 6 7 7 8 9 10 11 13 14 14 14 13 12 11 11 11 10 9 9 9 10 11 11 10 9 10 11 11 11 11
2 1 2 3 3 5 8 10 11 10 9 8 7 6 6 6 8 8 7 8 9 10 11 11 11 11 10 10 10 9 8 7 8 9 10 10 8 6 6 6 6 5 5 6
1 1 2 3 3 6 9 11 10 9 8 7 6 6 6 7 8 8 7 7 8 8 8 8 9 9 9 9 9 7 5 5 7 8 9 8 6 4 3 3 2 2 1 1
1 2 3 4 4 7 10 11 10 9 8 7 7 7 8 9 10 8 6 6 6 5 5 5 6 7 7 8 8 7 5 4 6 7 7 5 4 3 3 3 3 2 1 0
1 1 3 4 6 9 10 10 10 10 8 7 7 8 8 9 8 6 5 4 4 3 3 3 3 4 6 7 7 7 6 5 6 6 5 5 5 4 3 3 3 2 1 0
1 1 3 5 7 9 10 9 9 8 7 6 6 7 7 6 5 5 4 3 3 3 3 3 3 4 5 5 5 4 4 4 5 6 6 6 6 5 4 3 3 2 1 0
0 1 3 5 6 8 8 7 7 6 6 6 5 5 6 5 4 5 5 4 3 3 3 3 3 4 5 5 4 3 2 1 2 4 5 5 5 4 3 3 3 2 1 0
0 1 1 2 4 4 4 5 5 4 4 5 4 4 6 6 6 6 6 4 3 3 3 3 3 3 4 5 5 4 1 0 0 1 2 3 3 3 3 3 2 1 0 0
1 1 1 1 2 1 1 2 3 3 3 4 3 4 6 6 6 6 5 4 3 3 3 3 3 3 3 4 5 4 1 0 0 0 0 1 2 3 3 2 1 0 0 0
1 1 0 1 1 1 1 0 1 2 3 3 3 4 6 6 4 3 3 3 3 3 3 3 3 3 3 4 5 3 1 0 0 0 0 0 1 1 2 1 0 0 0 0
1 0 0 1 2 2 2 1 0 1 1 2 3 4 5 5 3 1 1 1 3 3 3 2 3 3 3 3 3 2 1 0 0 0 0 0 0 0 0 0 0 0 0 0
1 0 0 1 2 3 2 1 0 0 0 1 3 4 5 5 3 1 1 1 3 3 3 3 3 3 3 3 2 1 0 0 0 0 0 0 0 0 0 0 0 0 0 0
0 0 0 1 1 2 2 1 0 0 0 1 3 4 5 5 3 2 2 3 3 3 3 3 3 2 2 2 1 0 0 0 0 0 0 0 0 0 0 0 0 0 0 0
0 0 0 0 0 1 1 0 0 0 0 1 3 5 5 4 3 3 3 3 3 3 3 3 2 1 1 1 1 0 0 0 0 0 0 0 0 0 0 0 0 0 0 0
0 0 0 0 0 0 0 0 0 0 1 2 4 4 4 3 3 3 3 3 2 3 2 1 1 0 0 0 0 0 0 0 0 0 0 0 0 0 0 0 0 0 0 0
0 0 0 0 0 0 0 0 0 0 1 2 3 3 3 3 3 3 2 1 1 1 1 1 0 0 0 0 0 0 0 0 0 0 0 0 0 0 0 0 0 0 0 0
0 0 0 0 0 0 0 0 0 0 0 1 2 3 3 3 3 3 1 0 0 0 1 0 0 0 0 0 0 0 0 0 0 0 0 0 0 0 0 0 0 0 0 0

GEFSNGP_con_prob3kmehi_348.txt.gz
EHI
0 0 0 0 0 0 0 0 0 0 0 1 2 4 5 7 10 10 8 6 4 3 4 6 10 14 19 22 20 17 16 15 14 13 12 11 9 8 7 7 6 6 6 6
0 0 0 0 0 1 1 1 0 0 0 1 2 4 5 7 9 9 7 6 4 3 3 6 9 12 18 21 19 16 15 15 14 14 13 11 8 7 7 7 6 6 6 6
0 0 0 1 1 2 2 2 1 1 1 1 2 3 3 5 7 7 6 5 4 3 4 5 7 11 15 18 17 15 13 13 14 14 13 11 8 6 7 7 6 6 6 6
0 0 0 0 1 2 3 3 3 2 2 2 2 2 2 3 4 4 4 4 5 5 5 5 7 10 13 15 15 13 11 11 12 12 10 8 6 6 6 7 6 6 6 6
0 0 0 0 0 1 1 2 3 3 3 2 2 1 1 2 3 3 3 5 6 6 5 5 9 12 13 13 13 12 11 10 10 10 7 4 4 5 6 6 6 6 6 6
0 0 0 0 0 0 0 1 2 3 3 3 2 1 2 3 4 4 5 6 6 5 4 5 9 12 13 13 13 13 12 10 9 8 5 3 3 4 5 6 7 7 6 5
0 0 0 0 0 0 0 1 2 3 4 4 3 2 3 6 7 6 6 6 6 5 4 5 8 11 13 13 13 13 12 10 9 8 6 4 4 4 5 6 7 7 6 6
0 0 0 0 0 1 1 1 3 4 4 5 4 4 6 8 9 7 6 6 6 5 4 4 6 9 11 11 11 12 12 10 8 8 7 6 6 6 6 7 8 8 8 7
0 0 0 0 0 0 1 2 3 4 5 6 6 7 8 9 9 7 6 6 5 4 3 2 4 6 8 8 9 11 11 9 8 8 7 7 8 8 8 8 10 11 9 8
0 0 0 0 0 0 0 1 2 3 5 7 8 8 9 9 8 7 5 5 4 3 3 3 4 6 6 7 8 9 9 8 8 7 6 6 7 8 8 8 10 12 11 10
0 0 0 0 0 0 0 0 1 3 4 6 7 7 7 7 6 4 2 2 2 3 3 5 6 6 6 7 7 7 6 6 6 6 5 4 4 4 4 5 7 8 9 10
0 0 0 0 0 0 0 1 1 3 3 3 4 4 4 5 3 2 0 0 1 2 3 4 5 5 4 5 6 5 4 4 5 5 4 3 3 2 2 2 2 3 4 5
0 0 0 0 0 0 1 3 3 3 3 3 4 4 4 3 2 1 1 0 1 2 2 2 2 2 2 4 5 5 4 3 3 3 2 1 2 2 2 1 1 1 1 1
0 0 0 0 0 0 2 4 3 2 3 4 5 5 4 3 3 2 2 1 1 2 1 0 0 1 2 3 4 5 4 4 3 2 1 0 0 1 1 1 1 1 1 0
0 0 0 0 0 0 2 3 3 2 3 4 4 4 3 3 3 3 3 2 2 2 1 1 1 2 3 3 4 4 4 3 3 2 1 0 0 0 0 0 1 1 1 1
0 0 0 0 0 0 1 2 3 3 3 3 3 2 2 3 3 3 2 1 1 1 1 2 2 3 3 3 3 3 3 3 3 2 1 0 0 0 0 0 0 0 1 1
0 0 0 0 0 0 0 1 2 3 3 3 2 1 1 2 2 2 1 0 0 0 1 1 2 3 3 3 3 3 3 3 3 2 1 0 0 0 0 0 0 0 0 1
0 0 0 0 0 0 0 1 1 1 2 3 2 0 0 1 1 1 0 0 0 0 0 0 1 3 3 3 3 3 3 3 3 2 1 0 0 0 0 0 0 0 0 0
0 0 0 0 0 0 0 0 0 0 1 2 2 1 1 0 0 0 0 0 0 0 0 0 1 2 3 3 3 3 3 3 3 1 0 0 0 0 0 0 0 0 0 0
0 0 0 0 0 0 0 0 0 0 0 1 1 1 1 0 0 0 0 0 0 0 0 0 1 2 3 3 3 3 3 3 2 1 0 0 0 0 0 0 0 0 0 0
0 0 0 0 0 0 0 0 0 0 0 0 0 1 1 0 0 0 0 0 0 0 0 0 1 3 3 3 3 3 3 3 2 1 0 0 0 0 0 0 0 0 0 0
0 0 0 0 0 0 0 0 0 0 0 0 0 0 0 0 0 0 0 0 0 0 0 1 2 3 3 3 3 3 3 3 2 1 0 0 0 0 0 0 0 0 0 0
0 0 0 0 0 0 0 0 0 0 0 0 0 0 0 0 0 0 0 0 0 0 0 1 2 2 3 3 3 3 3 3 1 0 0 0 0 0 0 0 0 0 0 0
0 0 0 0 0 0 0 0 0 0 0 0 0 0 0 0 0 0 0 0 0 0 0 0 1 1 1 2 3 3 3 2 1 0 0 0 0 0 0 0 0 0 0 0
0 0 0 0 0 0 0 0 0 0 0 0 0 0 0 0 0 0 0 0 0 0 0 0 0 0 1 2 3 3 3 2 1 0 0 0 0 0 0 0 0 0 0 0
0 0 0 0 0 0 0 0 0 0 0 0 0 0 0 0 0 0 0 0 0 0 0 0 0 0 1 2 2 2 2 2 1 0 0 0 0 0 0 0 0 0 0 0
0 0 0 0 0 0 0 0 0 0 0 0 0 0 0 0 0 0 0 0 0 0 0 0 0 0 1 1 1 1 1 1 0 0 0 0 0 0 0 0 0 0 0 0

GEFSNGP_con_prob3kmehi_354.txt.gz
EHI
0 0 0 0 0 0 0 0 0 0 0 1 2 3 5 6 7 8 9 11 16 26 34 33 30 28 26 25 24 22 21 19 17 18 23 29 31 29 26 23 19 16 15 15
0 0 0 0 0 0 0 0 0 0 1 1 2 3 5 7 9 10 11 13 15 21 28 29 27 26 26 24 23 22 21 20 19 20 25 30 32 31 28 24 21 17 15 14
0 0 0 0 0 0 0 0 1 2 3 2 3 4 5 8 11 12 12 13 15 16 19 22 23 25 26 24 22 22 21 21 22 25 27 30 33 34 30 26 22 19 16 12
0 0 0 0 0 0 0 2 4 5 5 4 3 3 4 6 10 12 12 11 14 15 15 18 21 24 25 24 22 21 20 20 22 26 28 28 31 32 30 26 24 22 18 14
0 0 0 0 0 0 1 3 5 6 7 6 3 2 3 6 9 10 9 9 12 15 16 17 19 21 23 23 21 19 18 19 21 23 26 28 28 28 27 25 24 22 18 15
0 0 0 1 0 0 2 4 6 7 7 6 4 4 6 7 9 10 9 9 12 15 17 17 18 19 20 18 16 15 16 18 20 22 25 27 26 23 22 22 21 19 15 12
0 0 1 2 1 1 3 7 8 8 7 7 7 8 8 8 10 11 11 11 12 15 17 18 19 21 20 17 14 12 13 17 20 22 24 24 23 21 20 19 19 19 15 11
2 2 3 4 3 4 7 10 11 10 8 8 8 8 7 9 11 12 13 13 13 14 16 19 21 22 22 18 14 13 14 17 20 21 21 20 20 21 21 20 19 19 18 16
5 5 6 6 7 9 10 11 11 10 8 7 5 5 7 10 12 13 13 13 13 14 17 20 21 20 19 18 16 17 18 19 19 19 19 17 17 19 20 19 18 19 19 19
6 6 7 8 10 12 12 10 9 8 6 5 4 5 8 11 13 13 13 13 14 17 19 21 20 17 15 16 18 19 20 18 17 16 16 15 14 15 16 17 17 17 17 17
4 5 6 7 9 11 10 8 7 7 6 5 5 7 9 11 12 12 13 13 14 16 18 19 18 15 14 15 17 19 18 15 14 14 13 12 11 11 12 13 14 13 12 11
1 2 4 7 8 9 8 7 7 8 7 6 6 8 9 10 10 10 10 10 11 12 14 15 16 15 13 13 15 15 14 13 12 13 12 11 10 10 9 8 7 6 5 4
0 1 3 5 7 7 7 7 7 8 8 6 7 8 9 9 8 7 5 6 6 8 10 12 13 13 12 12 13 13 12 11 10 11 11 10 9 9 8 6 4 2 1 1
0 0 1 2 4 4 5 6 7 7 7 6 7 8 9 9 7 5 4 4 4 5 7 9 9 9 9 9 11 11 9 7 7 7 7 7 6 6 6 5 4 2 1 0
0 1 1 1 2 2 4 6 8 8 7 7 6 7 8 9 8 6 4 4 4 4 5 5 6 6 5 5 7 8 6 4 3 3 3 4 4 5 5 5 5 4 2 1
1 2 2 2 2 2 3 7 9 10 9 8 7 7 8 8 9 8 6 5 5 5 4 3 4 4 3 2 2 3 3 2 1 0 1 2 3 4 4 4 5 4 3 3
2 2 2 2 2 1 3 6 9 10 9 9 9 9 8 9 9 9 8 7 6 6 4 3 3 3 2 1 1 1 1 1 0 0 0 1 2 3 4 4 4 4 3 3
2 1 1 1 1 1 3 6 8 9 8 8 9 9 8 9 9 9 9 8 7 6 4 3 3 3 2 1 1 2 1 0 0 0 0 1 2 3 3 3 3 3 3 3
1 0 0 0 0 0 2 5 7 7 6 7 7 7 6 6 7 7 7 7 6 5 4 2 2 2 1 1 1 1 1 0 0 0 0 1 2 3 3 3 3 3 3 3
0 1 1 0 0 0 1 3 5 6 6 5 5 5 5 5 5 5 6 6 5 4 3 1 0 1 1 0 0 0 0 0 0 0 0 0 1 1 2 1 1 3 3 3
1 1 1 0 0 0 1 2 3 4 5 4 3 5 6 6 4 4 4 4 4 3 2 1 0 0 0 0 0 0 0 0 0 1 2 1 1 1 1 1 1 2 2 2
3 2 1 0 0 0 0 1 1 2 4 4 3 4 7 7 5 4 3 3 2 1 1 0 0 0 0 0 0 0 0 0 0 1 2 2 2 2 2 2 1 1 1 1
5 4 2 1 0 0 0 1 1 1 2 3 2 3 4 6 6 4 2 1 1 1 0 0 0 0 0 0 0 0 0 0 0 1 2 3 3 3 3 3 2 1 0 0
6 6 4 1 0 0 0 1 2 1 1 1 1 1 2 4 4 3 1 0 0 0 0 0 0 0 0 0 0 0 0 0 1 2 3 3 3 3 3 3 3 1 0 0
6 5 3 1 0 0 1 1 2 2 1 1 0 0 1 2 2 1 1 0 0 0 0 0 0 0 0 0 0 0 0 1 2 3 3 3 3 3 3 3 2 1 0 0
5 4 2 1 1 1 1 1 2 2 2 1 0 0 0 1 0 0 1 0 0 0 0 0 0 0 0 0 0 0 1 2 3 3 3 3 2 2 2 1 1 1 1 0
4 3 2 2 2 1 1 1 1 1 1 1 0 0 0 1 0 0 1 0 0 0 0 0 0 0 0 0 0 0 1 2 3 3 3 2 1 1 1 1 2 2 2 1

GEFSNGP_con_prob3kmehi_360.txt.gz
EHI
0 0 0 0 0 0 0 0 0 1 2 3 4 4 6 8 11 15 18 22 33 45 51 55 56 54 48 44 42 45 45 41 38 37 34 31 31 32 31 28 25 25 27 28
0 0 0 0 0 0 0 0 0 0 1 3 4 5 7 10 13 16 18 21 32 44 49 51 50 46 43 42 43 46 47 42 38 36 34 31 31 33 33 30 28 29 31 32
0 0 0 0 0 0 0 0 0 0 0 1 3 5 9 12 15 18 20 23 31 40 44 43 40 38 38 39 41 45 47 43 38 34 32 30 30 33 34 32 32 33 34 35
0 0 0 0 0 0 0 1 0 0 1 2 4 8 12 13 14 18 22 26 30 34 37 37 34 34 35 36 38 41 44 42 38 34 32 32 32 34 35 33 34 35 35 35
0 0 0 0 0 0 0 1 1 1 1 3 5 10 14 15 15 18 23 27 28 29 31 33 33 33 33 34 37 40 41 40 37 35 34 34 34 35 35 33 32 35 36 35
0 0 0 1 1 0 1 3 4 3 4 5 7 12 17 19 19 20 23 26 26 26 27 30 32 31 30 33 38 40 40 38 37 36 35 35 35 35 34 31 30 31 33 34
0 0 1 2 3 3 6 9 10 8 9 10 13 17 21 21 22 22 23 22 23 24 25 28 30 30 29 32 35 38 39 37 36 36 35 34 35 35 34 32 29 27 28 30
1 1 2 4 5 7 10 13 13 12 14 17 19 22 22 21 22 22 20 19 20 23 26 27 28 29 30 31 32 34 37 37 36 36 34 32 34 35 34 32 29 27 26 27
3 3 5 6 7 8 10 11 11 11 12 16 20 21 22 22 22 20 18 17 19 21 24 26 27 28 30 32 32 34 36 37 37 36 33 31 31 31 29 27 26 25 25 25
5 6 7 6 6 7 9 9 10 9 8 10 15 19 20 22 23 20 18 18 19 21 22 24 26 27 28 31 33 34 35 37 35 32 29 28 27 24 22 22 22 20 20 19
7 8 8 6 5 5 7 9 8 8 7 9 14 19 21 22 23 22 20 20 22 22 22 23 24 25 26 28 31 32 32 32 29 24 22 22 21 18 16 17 16 14 13 12
8 8 7 5 4 4 5 6 7 9 10 12 17 22 24 22 22 22 22 22 23 22 22 22 23 24 24 25 27 29 28 26 22 18 16 14 13 11 10 10 9 9 8 8
7 7 5 3 3 3 4 5 7 10 12 13 18 22 22 21 20 20 21 22 22 21 22 22 23 24 23 23 25 25 24 21 18 14 11 9 7 5 5 6 6 6 6 4
6 6 4 3 3 3 4 5 7 9 10 12 16 18 19 19 19 19 20 21 20 20 22 22 22 22 22 23 23 21 18 16 14 11 8 5 4 4 4 5 6 7 6 4
5 5 5 5 5 5 5 6 7 7 7 10 13 14 16 17 18 19 20 20 19 20 22 22 21 20 20 21 20 17 13 11 10 8 5 4 4 3 3 4 5 6 6 5
4 5 6 7 6 6 7 7 7 6 6 8 10 11 13 14 16 17 17 17 17 18 20 20 19 18 18 17 15 13 10 8 7 5 3 3 3 3 3 3 3 4 4 4
5 5 5 5 6 7 7 6 5 4 5 7 8 9 10 12 12 12 11 13 14 16 17 17 16 15 16 14 10 8 6 5 3 2 1 1 2 3 3 3 3 3 3 3
5 5 4 4 5 6 7 6 4 4 5 6 7 8 10 10 9 8 8 9 11 12 13 13 13 14 13 11 7 3 2 1 1 0 0 0 1 1 2 2 2 2 3 3
4 4 3 4 4 4 4 5 4 4 5 7 8 9 10 9 7 7 7 8 9 10 11 11 11 11 11 8 4 1 0 0 0 0 0 0 0 0 1 1 1 1 1 2
3 2 2 3 3 2 3 4 6 6 6 8 10 11 10 9 7 7 7 9 10 10 10 9 8 8 8 5 2 0 0 0 0 0 0 0 0 0 0 0 0 0 0 1
1 0 1 3 3 3 5 6 7 8 10 11 11 12 11 9 7 7 8 9 10 10 9 8 8 6 5 3 1 0 0 0 0 0 0 0 0 0 0 0 0 0 0 0
0 1 2 4 4 5 7 8 8 9 12 13 12 10 9 7 5 5 6 9 9 9 8 7 6 4 2 1 0 0 0 0 0 0 0 0 0 0 0 0 0 0 0 0
2 3 4 5 6 6 6 6 6 8 10 12 11 8 6 5 4 3 5 8 8 6 4 4 2 1 0 0 0 0 0 0 0 0 0 1 1 1 1 0 0 0 0 0
4 5 6 7 6 5 3 3 4 6 6 7 7 6 4 5 5 4 6 7 5 3 2 1 0 0 0 0 0 0 0 0 1 1 1 1 2 2 1 0 0 0 0 1
4 5 6 8 7 5 2 1 3 4 3 3 3 4 4 5 6 6 5 4 2 1 1 1 0 0 0 1 0 0 0 1 2 2 1 1 1 1 0 0 0 0 1 2
3 3 5 7 7 5 2 1 1 2 2 1 2 3 3 4 5 5 3 2 1 0 1 2 1 0 0 0 0 0 0 0 1 1 1 0 0 0 1 1 1 1 2 2
3 3 4 6 6 4 2 0 0 1 2 2 1 2 3 4 4 2 2 2 2 1 1 2 2 1 0 0 0 0 0 0 0 0 0 0 0 1 2 2 2 2 1 1

GEFSNGP_con_prob3kmehi_366.txt.gz
EHI
0 0 0 0 0 0 0 0 0 0 0 1 4 4 2 2 7 14 20 22 18 12 10 9 11 16 21 22 20 18 18 18 18 19 17 14 13 13 11 7 5 5 5 4
0 0 0 0 0 0 0 0 0 0 1 2 4 4 2 3 8 15 20 20 16 13 11 10 12 16 20 21 19 17 16 16 18 19 18 15 13 12 10 7 6 6 5 5
0 0 0 0 0 0 0 0 0 1 3 5 6 4 1 2 7 13 18 17 14 14 13 12 13 15 18 19 19 16 14 15 18 19 19 17 14 13 10 8 7 6 6 6
0 0 0 0 0 0 0 0 1 3 6 8 8 6 3 3 5 10 13 13 14 15 15 14 14 15 17 18 17 15 14 16 17 19 20 19 17 14 12 9 8 7 6 6
0 0 0 0 0 1 1 1 2 6 9 9 7 7 6 6 7 9 10 12 14 15 15 14 13 15 17 17 16 14 14 14 16 18 20 21 20 17 14 12 10 8 7 6
0 0 0 1 1 2 2 1 2 6 8 6 4 4 7 10 11 11 11 11 13 13 13 12 12 15 17 17 15 13 13 13 13 16 19 21 20 18 15 14 13 11 9 7
0 0 1 2 3 3 2 2 3 4 4 3 3 4 6 10 11 11 10 11 12 12 12 12 13 16 18 17 15 14 14 14 15 18 19 19 18 16 14 14 14 13 10 8
1 1 1 3 3 3 3 4 4 2 2 4 6 7 8 10 11 11 11 13 13 13 13 13 14 16 17 16 16 15 15 15 17 19 19 17 15 14 14 14 14 13 11 9
0 1 1 2 2 2 4 5 5 4 5 7 8 10 13 13 13 13 14 16 16 16 15 14 14 15 15 15 16 16 14 13 14 15 16 15 14 14 15 14 13 12 12 11
1 1 3 4 3 3 3 5 7 8 9 9 9 10 13 15 15 16 16 16 16 16 15 13 12 12 12 12 13 13 11 10 10 11 13 13 13 12 11 10 9 11 11 11
2 2 3 5 5 4 4 6 9 11 11 10 10 10 11 13 15 16 16 16 15 14 13 12 11 10 9 10 10 10 9 8 8 9 11 13 11 9 6 4 4 6 7 7
1 1 1 2 3 3 3 5 9 10 9 9 9 9 10 12 15 16 16 16 15 14 12 12 12 10 9 10 10 10 9 7 6 7 9 11 10 7 4 1 1 1 2 3
1 1 1 1 1 2 2 4 7 8 7 6 7 8 10 13 15 16 16 16 15 14 13 13 12 11 10 10 11 9 8 5 4 4 6 8 9 8 4 1 0 0 0 1
2 2 1 1 2 3 4 5 6 6 6 5 5 6 9 12 14 15 14 13 12 12 12 12 11 10 9 9 9 8 6 4 3 3 4 5 6 6 3 1 0 0 0 0
2 1 1 1 3 5 6 7 6 6 6 4 3 4 6 9 10 11 11 10 9 9 10 11 10 8 7 7 8 7 5 3 2 2 3 4 4 3 2 1 0 0 0 0
1 0 0 1 2 4 5 6 6 6 5 4 3 3 3 5 6 7 6 6 6 6 8 9 8 6 5 5 5 6 4 2 1 1 1 2 2 2 1 0 0 0 0 0
0 0 0 0 1 1 2 3 4 4 4 3 2 2 2 3 4 4 3 4 4 4 5 6 6 5 3 3 3 4 3 1 0 0 0 1 1 1 0 0 0 0 0 0
0 0 0 0 0 0 0 1 2 2 2 2 1 2 2 3 2 2 3 3 3 3 3 4 4 3 2 2 3 3 2 1 0 0 0 0 0 0 0 0 0 0 0 0
0 0 0 0 0 0 0 0 1 1 0 0 0 1 3 3 3 3 4 4 4 4 4 3 3 3 1 1 2 2 1 0 0 0 0 0 0 0 0 0 0 0 0 0
0 0 0 0 0 0 1 1 1 0 0 0 0 1 2 2 3 4 5 4 4 5 5 3 3 2 1 0 1 1 1 0 0 0 0 0 0 0 0 0 0 0 0 0
1 0 0 0 0 1 2 2 2 1 0 0 1 1 1 1 1 3 4 4 4 5 5 3 2 1 0 0 0 0 0 0 0 0 0 0 0 0 0 0 0 0 0 0
1 0 0 0 1 2 3 3 2 1 0 0 0 0 0 0 0 1 2 3 3 3 3 3 2 1 0 0 0 0 0 0 0 0 0 0 0 0 0 0 0 0 0 0
1 1 1 1 2 3 3 2 1 0 0 0 0 0 0 0 0 1 1 2 2 2 2 2 2 1 0 0 0 0 0 0 0 0 0 0 0 0 0 0 0 0 0 0
1 2 2 2 2 2 1 1 0 0 0 0 0 0 1 1 0 0 0 0 0 0 1 1 1 0 0 0 0 0 0 0 0 0 0 0 0 0 0 0 0 0 0 0
3 3 2 1 1 1 0 0 0 0 0 0 0 0 2 2 1 0 0 0 0 0 0 0 0 0 0 0 0 0 0 0 0 0 0 0 0 0 0 0 0 0 0 0
3 3 1 0 0 0 0 0 0 0 0 0 0 0 2 3 2 0 0 0 0 0 0 0 0 0 0 0 0 0 0 0 0 0 0 0 0 0 0 0 0 0 0 0
3 2 1 0 0 0 0 0 0 0 0 0 0 0 1 2 2 0 0 0 0 0 0 0 0 0 0 0 0 0 0 0 0 0 0 0 0 0 0 0 0 0 0 0

GEFSNGP_con_prob3kmehi_372.txt.gz
EHI
0 0 0 0 0 0 0 0 0 0 0 0 0 0 1 2 3 3 2 1 1 1 1 4 7 6 5 6 7 8 7 4 2 2 2 3 5 6 6 5 4 3 3 3
0 0 0 0 0 0 0 0 0 0 0 0 0 0 1 3 4 4 3 1 1 1 1 3 5 6 6 6 6 6 6 5 3 2 3 3 4 6 7 6 5 4 4 4
0 0 0 0 0 0 1 1 1 0 0 1 1 1 2 4 5 5 3 1 1 1 1 1 3 6 7 6 5 5 6 6 5 4 3 3 4 7 9 8 6 5 5 5
0 0 0 0 0 1 1 2 2 1 1 3 4 3 4 4 5 4 2 0 1 2 2 1 2 4 6 6 5 4 5 6 6 5 4 5 6 8 8 8 7 6 5 4
0 0 0 0 0 0 1 1 2 3 4 5 5 3 3 3 2 2 2 2 3 3 3 3 3 5 6 5 4 4 4 5 6 6 6 7 8 8 7 6 6 7 7 5
0 0 0 0 1 1 1 0 1 4 7 6 3 1 1 1 1 2 3 4 4 3 3 4 5 6 6 6 4 4 4 5 6 6 6 6 7 6 5 5 6 9 8 7
0 0 0 1 2 2 1 0 1 3 6 5 2 0 1 2 2 3 5 5 4 3 3 4 4 5 7 7 5 4 4 5 6 6 6 5 4 4 3 4 7 8 8 8
0 0 0 1 3 2 1 0 0 2 3 3 2 0 1 2 4 5 5 5 4 4 4 4 4 5 7 7 5 4 5 6 6 6 6 5 4 4 4 5 7 8 7 7
0 0 0 0 1 1 0 0 0 1 1 1 1 0 1 3 5 6 6 6 6 5 5 5 6 6 7 7 7 6 6 6 6 6 6 6 5 5 5 6 6 7 7 6
0 0 0 0 0 0 1 1 1 2 2 1 0 1 2 4 6 6 6 6 6 6 6 6 6 6 7 8 9 9 8 7 7 6 5 6 6 6 6 5 5 6 6 5
0 0 0 0 0 1 2 2 2 3 3 1 0 1 3 4 5 6 6 5 5 6 7 7 7 7 8 9 10 10 9 9 8 6 6 6 6 5 4 4 4 5 5 5
0 0 0 0 0 1 2 3 3 4 4 3 2 3 4 4 4 5 6 5 5 7 9 9 8 9 9 9 10 10 10 9 8 7 6 6 6 5 4 3 3 3 3 3
0 0 0 0 0 1 1 1 2 3 3 3 4 5 5 4 3 4 5 5 6 7 9 10 11 11 10 10 9 10 9 8 6 6 6 6 6 5 4 3 2 1 1 1
0 0 0 0 0 0 0 0 1 1 1 2 4 5 5 3 2 3 3 4 5 7 9 10 11 12 11 9 8 7 7 6 5 4 4 4 5 5 4 2 1 0 0 0
0 0 0 0 0 0 0 0 1 1 1 1 2 3 3 1 1 1 1 2 4 6 7 8 9 10 10 8 5 4 4 4 3 3 3 3 4 4 3 1 1 0 0 0
0 0 0 0 0 0 0 0 1 2 1 1 1 1 1 0 0 0 0 1 3 5 5 6 7 7 7 5 3 3 3 3 3 3 3 3 3 3 2 1 0 0 0 0
0 0 0 0 0 0 0 0 1 2 2 1 1 0 0 0 0 0 0 0 2 3 4 5 6 6 4 3 3 3 3 3 3 3 3 3 3 3 2 1 0 0 0 0
0 0 0 0 0 0 0 0 0 1 2 2 2 1 0 0 0 0 0 0 1 1 2 4 5 5 3 3 3 3 3 3 3 2 2 2 2 1 1 0 0 0 0 0
0 0 0 0 0 0 0 0 0 0 1 2 2 1 0 0 0 0 0 0 0 0 0 2 3 3 3 3 3 2 2 2 1 1 1 1 1 0 0 0 0 0 0 0
0 0 0 0 0 0 0 0 0 0 0 1 2 2 1 0 0 0 0 0 0 0 0 0 1 2 2 2 2 1 1 1 0 0 0 0 0 0 0 0 0 0 0 0
0 0 0 0 0 0 0 0 0 0 0 1 2 2 1 0 0 0 0 0 0 0 0 0 0 1 1 2 2 2 1 0 0 0 0 0 0 0 0 0 0 0 0 0
0 0 0 0 0 0 0 0 0 0 0 0 1 1 0 0 0 0 0 0 0 0 0 0 0 0 0 1 2 3 2 1 0 0 0 0 0 0 0 0 0 0 0 0
0 0 0 0 0 0 0 0 0 0 0 0 0 0 0 0 0 0 0 0 0 0 0 0 0 0 0 1 2 3 3 2 1 0 0 0 0 0 0 0 0 0 0 0
0 0 0 0 0 0 0 0 0 0 0 0 0 0 0 0 0 0 0 0 0 0 0 0 0 0 0 1 2 3 3 2 1 0 0 0 0 0 0 0 0 0 0 0
0 0 0 0 0 0 0 0 0 0 0 0 0 0 0 0 0 0 0 0 0 0 0 0 0 0 0 0 1 2 2 1 0 0 0 0 0 0 0 0 0 0 0 0
0 0 0 0 0 0 0 0 0 0 0 0 0 0 0 0 0 0 0 0 0 0 0 0 0 0 0 0 0 1 1 0 0 0 0 0 0 0 0 0 0 0 0 0
0 0 0 0 0 0 0 0 0 0 0 0 0 0 0 0 0 0 0 0 0 0 0 0 0 0 0 0 0 0 0 0 0 0 0 0 0 0 0 0 0 0 0 0